Content
SEND FEEDBACK

Daily
Averages
Monthly
Summary
Argentina

LAS HIGUERAS, ARGENTINA


Home > South America > Argentina
Elevation: 1381 feet     Latitude: 33 01N     Longitude: 064 13W

WEATHER
 
SELECT A DAY
Number of Records: 58,148;   Date Range: 11/29/96 - 7/30/14
 
SHARE

PRINT THIS DATA

[ ← Previous Day ]
WEATHER ALMANAC - JANUARY 31, 2013
[ Next Day → ]
[ °C ]   °F
Weather ElementAverageHighLow
Temperature75.3 °F82.4 °F (5:00 pm)65 °F (6:00 am)
Dewpoint65 °F69.8 °F (9:00 pm)59 °F (9:00 am)
Humidity69.4 %92 % (6:00 am)44 % (6:00 pm)
Barometer29.77 in29.86 in (10:00 am)29.68 in (6:00 pm)
Wind Speed18.7 mph112.8 mph (9:00 am)
Weather ElementAverage
Visibility7.6 mi
Wind DirectionSSW (216.2 °)

Weather ElementTotal
Precipitation---
Cooling Degree Days8.7 (Base 65)
Growing Degree Days23.7 (Base 50)
Averaged from 21 records on January 31, 2013
WEATHER CONDITIONS BREAKOUT
WIND DIRECTION BREAKOUT
WEATHER BY HOUR - JANUARY 31, 2013
[ °C ]   °F
Local TimeTemperatureDewpointHumidityBarometerVisibilityWind DirectionWind SpeedGust SpeedPrecipitationEventsConditions
6:00 AM65.0 °F63.0 °F92 %29.79 in5.0 miWest (270°)11.5 mphRain-ThunderstormThunderstorms and Rain
9:00 AM67.0 °F60.0 °F73 %29.78 in9.0 miNNW (340°)10.4 mphThunderstormLight Thunderstorm
9:00 AM68.0 °F59.0 °F73 %29.83 in6.2 miNNW (340°)112.8 mphMostly Cloudy
10:00 AM68.0 °F62.6 °F83 %29.86 in6.2 miNorth (360°)10.4 mphMostly Cloudy
11:00 AM69.8 °F62.6 °F78 %29.86 in6.2 miEast (90°)13.8 mphMostly Cloudy
12:00 PM75.2 °F66.2 °F73 %29.86 inEast (90°)19.6 mphClear
12:00 PM74.0 °F66.0 °F68 %29.81 in9.0 miEast (90°)19.6 mphOvercast
1:00 PM75.2 °F66.2 °F73 %29.83 inNNE (20°)21.9 mphClear
2:00 PM75.2 °F64.4 °F69 %29.83 inNorth (360°)18.4 mphClear
3:00 PM78.8 °F66.2 °F65 %29.80 inNorth (360°)19.6 mphClear
3:00 PM80.0 °F67.0 °F56 %29.74 in9.0 miNorth19.6 mphClear
4:00 PM80.6 °F62.6 °F54 %29.77 inNorth (360°)12.7 mphClear
5:00 PM82.4 °F64.4 °F54 %29.74 inNorth (360°)12.7 mphClear
6:00 PM82.0 °F64.0 °F44 %29.68 in9.0 miNorth12.7 mphClear
6:00 PM80.6 °F62.6 °F54 %29.71 inNorth (360°)12.7 mphClear
7:00 PM82.4 °F66.2 °F58 %29.71 inNorth (360°)13.8 mphClear
8:00 PM78.8 °F68.0 °F69 %29.71 inNNE (20°)10.4 mphClear
9:00 PM76.0 °F69.0 °F73 %29.69 in9.0 miNNE (20°)10.4 mphClear
9:00 PM75.2 °F69.8 °F83 %29.74 inNNE (20°)10.4 mphClear
10:00 PM73.4 °F68.0 °F83 %29.74 inNorth (360°)8.1 mphClear
11:00 PM73.4 °F68.0 °F83 %29.77 inNorth (360°)10.4 mphClear
Hourly data recorded from SAOC, located miles away from Las Higueras, Argentina







STORIES FROM OUR PARTNERS